Simultaneous Nadir Overpasses (SNOs) Predictions

Prediction of SNOs between AQUA and METOP-B Satellite Orbit:

Table of predicted SNOs for the next 14.0 days since TLE Epoch: 5/23/2015
Index Date (AQUA) Time (AQUA) Lat,Lon (AQUA) SZA (AQUA ) Date (METOP-B) Time (METOP-B) Lat,Lon (METOP-B) SZA (METOP-B ) Distance(km) Time Diff (sec)
1 05/24/2015 08:31:14 73.75, 46.81 52.99 05/24/2015 08:30:44 73.75, 46.80 53.00 0.52 30
2 05/24/2015 09:20:41 -73.81,-145.68 126.96 05/24/2015 09:21:24 -73.84,-145.68 126.94 3.07 43
3 05/27/2015 04:05:32 73.74, 113.25 52.48 05/27/2015 04:05:04 73.75, 113.22 52.50 1.84 28
4 05/27/2015 04:55:00 -73.85, -79.35 127.42 05/27/2015 04:55:44 -73.84, -79.26 127.43 3.09 44
5 05/29/2015 23:39:49 73.76, 179.63 52.05 05/29/2015 23:39:23 73.75, 179.62 52.04 1.25 26
6 05/30/2015 00:29:16 -73.81, -12.85 127.90 05/30/2015 00:30:03 -73.83, -12.85 127.89 2.00 47
7 06/01/2015 19:14:06 73.75,-113.94 51.65 06/01/2015 19:13:43 73.74,-113.99 51.63 2.63 23
8 06/01/2015 20:03:33 -73.81, 53.59 128.30 06/01/2015 20:04:23 -73.82, 53.54 128.30 1.89 50
9 06/04/2015 13:58:43 -73.11, 146.21 129.38 06/04/2015 13:57:37 -73.03, 143.51 129.37 87.80 66
10 06/04/2015 14:48:23 73.78, -47.56 51.32 06/04/2015 14:48:02 73.77, -47.49 51.31 2.56 21
11 06/04/2015 15:37:50 -73.83, 119.96 128.63 06/04/2015 15:38:42 -73.85, 120.04 128.61 3.23 52




NCC Satellite Simultaneous Nadir Overpasses (SNOs) Prediction Service
